STARLINK-35226 (65492 NORAD) Tracking and Keplerian Element Data

This shows tracking and keplerian element data for the satellite.

Feedback or suggestion? Click here.




ElementValue
Catalog65492
NameSTARLINK-35226
Epoch Orbit1640
Epoch Day354.18897396
Epoch Year2025
RAAN283.4365
Inclination53.1622
Eccentricity5.26E-05
Argument of Perigee194.0673
Mean Anonmoly166.0318
Mean Motion15.39637503
Decay Rate0.00027895
L11 65492U 25198A 25354.18897396 .00027895 00000+0 70439-3 0 9997
L22 65492 53.1622 283.4365 0000526 194.0673 166.0318 15.39637503 16409



Live tracking and technical data element details for STARLINK-35226 (NORAD 65492). STARLINK-35226 can be tracked NOW for your location showing map with azimuth and elevation plus other details from your city location.







IsCatalogInMostPopularTable: catalog: 65492, numindb: 5
Update: records affected: 1



GetName: 65492 STARLINK-35226

Hit Count: updated at: Tue, 10 Feb 2026 02:58:10 GMT